Hourly Data Report for September 15, 2017

All times are specified in Local Standard Time (LST). Add 1 hour to adjust for Daylight Saving Time where and when it is observed.

WINNIPEG A CS
MANITOBA

49°55'00.000" N
97°14'58.000" W
238.70 m
502S001
71849
XWG

Download Data

Hourly Data (September 2017)
Hourly Data Report for September 15, 2017
Temp Definition
°C
Dew Point Temp Definition
°C
Rel Hum Definition
%
Wind Dir Definition
10's deg

Wind Spd Definition
km/h
Visibility Definition
km
Stn Press Definition
kPa
Hmdx Definition


Wind Chill Definition


Weather Definition


TIME
00:00 11.2 7.9 80 1 13   98.67     LegendNANA
01:00 10.9 7.8 81 1 11   98.72     LegendNANA
02:00 10.5 7.6 82 1 11   98.75     LegendNANA
03:00 10.3 7.4 82 35 10   98.80     LegendNANA
04:00 10.2 7.4 83 1 13   98.78     LegendNANA
05:00 10.3 7.3 81 2 16   98.79     LegendNANA
06:00 10.3 7.1 81 2 14   98.88     LegendNANA
07:00 10.5 7.0 79 4 14   98.93     LegendNANA
08:00 10.4 6.4 76 4 23   98.94     LegendNANA
09:00 10.5 6.3 75 4 23   98.92     LegendNANA
10:00 10.3 6.1 75 3 21   98.96     LegendNANA
11:00 10.4 6.5 76 3 23   98.96     LegendNANA
12:00 10.5 7.5 82 4 18   98.99     LegendNANA
13:00 10.6 7.6 82 3 23   98.94     LegendNANA
14:00 10.4 7.7 83 3 24   98.91     LegendNANA
15:00 10.5 7.2 80 2 21   98.91     LegendNANA
16:00 10.1 7.0 81 3 26   98.89     LegendNANA
17:00 10.0 6.6 79 3 26   98.84     LegendNANA
18:00 9.9 7.0 82 3 26   98.82     LegendNANA
19:00 9.4 6.2 81 4 31   98.78     LegendNANA
20:00 9.4 5.6 77 5 28   98.79     LegendNANA
21:00 8.9 6.4 84 2 28   98.87     LegendNANA
22:00 8.3 6.9 90 2 33   98.85     LegendNANA
23:00 8.4 6.9 91 3 32   98.73     LegendNANA

Notes on Data Quality.

Legend

  • E = Estimated
  • M = Missing
  • NA = Not Available
  • ‡ = Partner data that is not subject to review by the National Climate Archives
Date modified: